Time,TemperatureF,DewpointF,PressureIn,WindDirection,WindDirectionDegrees,WindSpeedMPH,WindSpeedGustMPH,Humidity,HourlyPrecipIn,Conditions,Clouds,dailyrainin,SoftwareType,DateUTC
2013-06-29 00:04:00,71.0,71.0,29.47,ENE,67,0.0,0.0,100,0.00,,,0.00,TxWx,2013-06-29 04:04:00,
2013-06-29 00:09:00,71.0,71.0,29.47,East,90,0.0,0.0,100,0.00,,,0.00,TxWx,2013-06-29 04:09:00,
2013-06-29 00:14:00,71.0,71.0,29.47,NE,45,0.0,1.0,100,0.00,,,0.00,TxWx,2013-06-29 04:14:00,
2013-06-29 00:19:00,71.0,71.0,29.47,East,90,0.0,1.0,100,0.00,,,0.00,TxWx,2013-06-29 04:19:00,
2013-06-29 00:25:00,71.0,71.0,29.47,ESE,112,0.0,0.0,100,0.00,,,0.00,TxWx,2013-06-29 04:25:00,
2013-06-29 00:30:00,71.0,71.0,29.47,SSE,157,1.0,3.0,100,0.00,,,0.00,TxWx,2013-06-29 04:30:00,
2013-06-29 00:35:00,71.0,71.0,29.47,ESE,112,0.0,0.0,100,0.00,,,0.00,TxWx,2013-06-29 04:35:00,
2013-06-29 00:40:00,71.0,71.0,29.47,ESE,112,0.0,0.0,100,0.00,,,0.00,TxWx,2013-06-29 04:40:00,
2013-06-29 00:45:00,71.0,71.0,29.47,ESE,112,0.0,1.0,100,0.00,,,0.00,TxWx,2013-06-29 04:45:00,
2013-06-29 00:50:00,71.0,71.0,29.47,ESE,112,0.0,0.0,100,0.00,,,0.00,TxWx,2013-06-29 04:50:00,
2013-06-29 00:55:00,71.0,71.0,29.47,ESE,112,0.0,0.0,100,0.00,,,0.00,TxWx,2013-06-29 04:55:00,
2013-06-29 01:00:00,71.0,71.0,29.47,ESE,112,0.0,0.0,100,0.00,,,0.00,TxWx,2013-06-29 05:00:00,
2013-06-29 01:05:00,71.0,71.0,29.47,ESE,112,0.0,0.0,100,0.00,,,0.00,TxWx,2013-06-29 05:05:00,
2013-06-29 01:10:00,71.0,71.0,29.47,SSE,157,0.0,1.0,100,0.00,,,0.00,TxWx,2013-06-29 05:10:00,
2013-06-29 01:16:00,71.0,71.0,29.47,ESE,112,0.0,1.0,100,0.00,,,0.00,TxWx,2013-06-29 05:16:00,
2013-06-29 01:21:00,71.0,71.0,29.46,South,180,0.0,1.0,100,0.00,,,0.00,TxWx,2013-06-29 05:21:00,
2013-06-29 01:26:00,71.0,71.0,29.46,SSE,157,0.0,0.0,100,0.00,,,0.00,TxWx,2013-06-29 05:26:00,
2013-06-29 01:31:00,71.0,71.0,29.46,SSE,157,0.0,0.0,100,0.00,,,0.00,TxWx,2013-06-29 05:31:00,
2013-06-29 01:37:00,71.0,71.0,29.46,ESE,112,0.0,0.0,100,0.00,,,0.00,TxWx,2013-06-29 05:37:00,
2013-06-29 01:42:00,71.0,71.0,29.46,ESE,112,0.0,0.0,100,0.00,,,0.00,TxWx,2013-06-29 05:42:00,
2013-06-29 01:48:00,71.0,71.0,29.46,ESE,112,0.0,0.0,100,0.00,,,0.00,TxWx,2013-06-29 05:48:00,
2013-06-29 01:53:00,71.0,71.0,29.47,SE,135,0.0,0.0,100,0.00,,,0.00,TxWx,2013-06-29 05:53:00,
2013-06-29 01:58:00,71.0,71.0,29.46,ESE,112,0.0,0.0,100,0.00,,,0.00,TxWx,2013-06-29 05:58:00,
2013-06-29 02:03:00,71.0,71.0,29.46,ESE,112,0.0,0.0,100,0.00,,,0.00,TxWx,2013-06-29 06:03:00,
2013-06-29 02:09:00,71.0,71.0,29.47,SE,135,0.0,0.0,100,0.00,,,0.00,TxWx,2013-06-29 06:09:00,
2013-06-29 02:14:00,71.0,71.0,29.47,ESE,112,0.0,0.0,100,0.00,,,0.00,TxWx,2013-06-29 06:14:00,
2013-06-29 02:19:00,71.0,71.0,29.47,ESE,112,3.0,3.0,100,0.00,,,0.00,TxWx,2013-06-29 06:19:00,
2013-06-29 02:24:00,71.0,71.0,29.46,SE,135,0.0,1.0,100,0.00,,,0.00,TxWx,2013-06-29 06:24:00,
2013-06-29 02:29:00,71.0,71.0,29.46,ESE,112,0.0,0.0,100,0.00,,,0.00,TxWx,2013-06-29 06:29:00,
2013-06-29 02:34:00,71.0,71.0,29.46,ESE,112,0.0,1.0,100,0.00,,,0.00,TxWx,2013-06-29 06:34:00,
2013-06-29 02:39:00,71.0,71.0,29.46,SSE,157,0.0,0.0,100,0.00,,,0.00,TxWx,2013-06-29 06:39:00,
2013-06-29 02:44:00,71.0,71.0,29.46,SE,135,0.0,1.0,100,0.00,,,0.00,TxWx,2013-06-29 06:44:00,
2013-06-29 02:49:00,71.0,71.0,29.46,SE,135,0.0,0.0,100,0.00,,,0.00,TxWx,2013-06-29 06:49:00,
2013-06-29 02:54:00,71.0,71.0,29.46,ESE,112,0.0,0.0,100,0.00,,,0.00,TxWx,2013-06-29 06:54:00,
2013-06-29 02:59:00,71.0,71.0,29.46,East,90,0.0,0.0,100,0.00,,,0.00,TxWx,2013-06-29 06:59:00,
2013-06-29 03:04:00,71.0,71.0,29.46,East,90,0.0,0.0,100,0.00,,,0.00,TxWx,2013-06-29 07:04:00,
2013-06-29 03:09:00,70.0,70.0,29.46,ESE,112,0.0,0.0,100,0.00,,,0.00,TxWx,2013-06-29 07:09:00,
2013-06-29 03:15:00,70.0,70.0,29.46,ESE,112,2.0,4.0,100,0.00,,,0.00,TxWx,2013-06-29 07:15:00,
2013-06-29 03:20:00,70.0,70.0,29.46,SE,135,3.0,3.0,100,0.00,,,0.00,TxWx,2013-06-29 07:20:00,
2013-06-29 03:25:00,70.0,70.0,29.47,ESE,112,3.0,3.0,100,0.00,,,0.00,TxWx,2013-06-29 07:25:00,
2013-06-29 03:30:00,69.0,69.0,29.46,ESE,112,3.0,3.0,100,0.00,,,0.00,TxWx,2013-06-29 07:30:00,
2013-06-29 03:35:00,69.0,69.0,29.47,SE,135,2.0,3.0,100,0.00,,,0.00,TxWx,2013-06-29 07:35:00,
2013-06-29 03:40:00,69.0,69.0,29.47,ESE,112,2.0,2.0,100,0.00,,,0.00,TxWx,2013-06-29 07:40:00,
2013-06-29 03:45:00,69.0,69.0,29.47,SE,135,0.0,1.0,100,0.00,,,0.00,TxWx,2013-06-29 07:45:00,
2013-06-29 03:50:00,69.0,69.0,29.47,SSE,157,0.0,0.0,100,0.00,,,0.00,TxWx,2013-06-29 07:50:00,
2013-06-29 03:55:00,69.0,69.0,29.47,SSE,157,2.0,2.0,100,0.00,,,0.00,TxWx,2013-06-29 07:55:00,
2013-06-29 04:00:00,69.0,69.0,29.47,SSE,157,0.0,0.0,100,0.00,,,0.00,TxWx,2013-06-29 08:00:00,
2013-06-29 04:05:00,69.0,69.0,29.47,ESE,112,0.0,0.0,100,0.00,,,0.00,TxWx,2013-06-29 08:05:00,
2013-06-29 04:10:00,69.0,69.0,29.48,SSE,157,0.0,0.0,100,0.00,,,0.00,TxWx,2013-06-29 08:10:00,
2013-06-29 04:15:00,69.0,69.0,29.48,ESE,112,0.0,0.0,100,0.00,,,0.00,TxWx,2013-06-29 08:15:00,
2013-06-29 04:20:00,69.0,69.0,29.48,ESE,112,0.0,0.0,100,0.00,,,0.00,TxWx,2013-06-29 08:20:00,
2013-06-29 04:25:00,69.0,69.0,29.48,SE,135,1.0,2.0,100,0.00,,,0.00,TxWx,2013-06-29 08:25:00,
2013-06-29 04:30:00,69.0,69.0,29.48,SE,135,1.0,1.0,100,0.00,,,0.00,TxWx,2013-06-29 08:30:00,
2013-06-29 04:36:00,69.0,69.0,29.48,ESE,112,0.0,1.0,100,0.00,,,0.00,TxWx,2013-06-29 08:36:00,
2013-06-29 04:41:00,69.0,69.0,29.48,ESE,112,0.0,1.0,100,0.00,,,0.00,TxWx,2013-06-29 08:41:00,
2013-06-29 04:46:00,69.0,69.0,29.48,SE,135,0.0,0.0,100,0.00,,,0.00,TxWx,2013-06-29 08:46:00,
2013-06-29 04:51:00,69.0,69.0,29.49,ESE,112,1.0,1.0,100,0.00,,,0.00,TxWx,2013-06-29 08:51:00,
2013-06-29 04:56:00,69.0,69.0,29.49,SE,135,1.0,1.0,100,0.00,,,0.00,TxWx,2013-06-29 08:56:00,
2013-06-29 05:01:00,69.0,69.0,29.49,ESE,112,2.0,3.0,100,0.00,,,0.00,TxWx,2013-06-29 09:01:00,
2013-06-29 05:06:00,69.0,69.0,29.49,ESE,112,1.0,1.0,100,0.00,,,0.00,TxWx,2013-06-29 09:06:00,
2013-06-29 05:11:00,69.0,69.0,29.50,ESE,112,1.0,1.0,100,0.00,,,0.00,TxWx,2013-06-29 09:11:00,
2013-06-29 05:16:00,69.0,69.0,29.50,South,180,0.0,0.0,100,0.00,,,0.00,TxWx,2013-06-29 09:16:00,
2013-06-29 05:21:00,69.0,69.0,29.51,SSE,157,3.0,3.0,100,0.00,,,0.00,TxWx,2013-06-29 09:21:00,
2013-06-29 05:26:00,69.0,69.0,29.51,South,180,3.0,3.0,100,0.00,,,0.00,TxWx,2013-06-29 09:26:00,
2013-06-29 05:31:00,69.0,69.0,29.51,ESE,112,0.0,1.0,100,0.00,,,0.00,TxWx,2013-06-29 09:31:00,
2013-06-29 05:36:00,69.0,69.0,29.51,ESE,112,1.0,1.0,100,0.00,,,0.00,TxWx,2013-06-29 09:36:00,
2013-06-29 05:41:00,69.0,69.0,29.51,ESE,112,1.0,1.0,100,0.00,,,0.00,TxWx,2013-06-29 09:41:00,
2013-06-29 05:46:00,69.0,69.0,29.51,ESE,112,0.0,1.0,100,0.00,,,0.00,TxWx,2013-06-29 09:46:00,
2013-06-29 05:51:00,69.0,69.0,29.51,SE,135,0.0,0.0,100,0.00,,,0.00,TxWx,2013-06-29 09:51:00,
2013-06-29 05:58:00,69.0,69.0,29.52,SE,135,1.0,2.0,100,0.00,,,0.00,TxWx,2013-06-29 09:58:00,
2013-06-29 06:04:00,69.0,69.0,29.51,SE,135,0.0,1.0,100,0.00,,,0.00,TxWx,2013-06-29 10:04:00,
2013-06-29 06:09:00,69.0,69.0,29.52,SE,135,0.0,0.0,100,0.00,,,0.00,TxWx,2013-06-29 10:09:00,
2013-06-29 06:14:00,69.0,69.0,29.52,ESE,112,0.0,1.0,100,0.00,,,0.00,TxWx,2013-06-29 10:14:00,
2013-06-29 06:19:00,69.0,69.0,29.52,ESE,112,3.0,3.0,100,0.00,,,0.00,TxWx,2013-06-29 10:19:00,
2013-06-29 06:24:00,69.0,69.0,29.52,SE,135,0.0,1.0,100,0.00,,,0.00,TxWx,2013-06-29 10:24:00,
2013-06-29 06:29:00,69.0,69.0,29.52,ESE,112,0.0,1.0,100,0.00,,,0.00,TxWx,2013-06-29 10:29:00,
2013-06-29 06:34:00,69.0,69.0,29.52,SE,135,0.0,1.0,100,0.00,,,0.00,TxWx,2013-06-29 10:34:00,
2013-06-29 06:39:00,69.0,69.0,29.53,ESE,112,3.0,3.0,100,0.00,,,0.00,TxWx,2013-06-29 10:39:00,
2013-06-29 06:44:00,69.0,69.0,29.53,East,90,1.0,2.0,100,0.00,,,0.00,TxWx,2013-06-29 10:44:00,
2013-06-29 06:49:00,69.0,69.0,29.53,ESE,112,5.0,5.0,100,0.00,,,0.00,TxWx,2013-06-29 10:49:00,
2013-06-29 06:54:00,69.0,69.0,29.54,ESE,112,0.0,1.0,100,0.00,,,0.00,TxWx,2013-06-29 10:54:00,
2013-06-29 07:00:00,69.0,69.0,29.53,SE,135,3.0,4.0,100,0.00,,,0.00,TxWx,2013-06-29 11:00:00,
2013-06-29 07:05:00,69.0,69.0,29.53,SE,135,3.0,3.0,100,0.00,,,0.00,TxWx,2013-06-29 11:05:00,
2013-06-29 07:10:00,69.0,69.0,29.53,SE,135,3.0,3.0,100,0.00,,,0.00,TxWx,2013-06-29 11:10:00,
2013-06-29 07:15:00,69.0,69.0,29.53,SSE,157,0.0,1.0,100,0.00,,,0.00,TxWx,2013-06-29 11:15:00,
2013-06-29 07:20:00,69.0,69.0,29.53,ESE,112,2.0,3.0,100,0.00,,,0.00,TxWx,2013-06-29 11:20:00,
2013-06-29 07:25:00,69.0,69.0,29.53,ESE,112,0.0,0.0,100,0.00,,,0.00,TxWx,2013-06-29 11:25:00,
2013-06-29 07:30:00,69.0,69.0,29.53,SE,135,0.0,0.0,100,0.00,,,0.00,TxWx,2013-06-29 11:30:00,
2013-06-29 07:35:00,69.0,69.0,29.54,ESE,112,3.0,3.0,100,0.00,,,0.00,TxWx,2013-06-29 11:35:00,
2013-06-29 07:40:00,69.0,69.0,29.54,SSE,157,3.0,4.0,100,0.00,,,0.00,TxWx,2013-06-29 11:40:00,
2013-06-29 07:45:00,69.0,69.0,29.53,SE,135,0.0,1.0,100,0.00,,,0.00,TxWx,2013-06-29 11:45:00,
2013-06-29 07:51:00,69.0,69.0,29.54,ESE,112,2.0,3.0,100,0.00,,,0.00,TxWx,2013-06-29 11:51:00,
2013-06-29 07:56:00,69.0,69.0,29.54,East,90,3.0,3.0,100,0.00,,,0.00,TxWx,2013-06-29 11:56:00,
2013-06-29 08:01:00,69.0,69.0,29.54,ENE,67,2.0,3.0,100,0.00,,,0.00,TxWx,2013-06-29 12:01:00,
2013-06-29 08:06:00,69.0,69.0,29.54,ESE,112,3.0,3.0,100,0.00,,,0.00,TxWx,2013-06-29 12:06:00,
2013-06-29 08:11:00,69.0,69.0,29.54,SE,135,3.0,3.0,100,0.00,,,0.00,TxWx,2013-06-29 12:11:00,
2013-06-29 08:16:00,69.0,69.0,29.54,ESE,112,0.0,0.0,100,0.00,,,0.00,TxWx,2013-06-29 12:16:00,
2013-06-29 08:21:00,69.0,69.0,29.54,SE,135,1.0,2.0,100,0.00,,,0.00,TxWx,2013-06-29 12:21:00,
2013-06-29 08:26:00,69.0,69.0,29.54,South,180,5.0,5.0,100,0.00,,,0.00,TxWx,2013-06-29 12:26:00,
2013-06-29 08:31:00,69.0,69.0,29.54,SSE,157,1.0,3.0,100,0.00,,,0.00,TxWx,2013-06-29 12:31:00,
2013-06-29 08:36:00,69.0,69.0,29.54,ESE,112,0.0,0.0,100,0.00,,,0.00,TxWx,2013-06-29 12:36:00,
2013-06-29 08:41:00,70.0,70.0,29.54,ESE,112,3.0,3.0,100,0.00,,,0.00,TxWx,2013-06-29 12:41:00,
2013-06-29 08:46:00,70.0,70.0,29.54,SSE,157,3.0,3.0,100,0.00,,,0.00,TxWx,2013-06-29 12:46:00,
2013-06-29 08:52:00,70.0,70.0,29.53,SSE,157,2.0,3.0,100,0.00,,,0.00,TxWx,2013-06-29 12:52:00,
2013-06-29 08:57:00,70.0,70.0,29.54,SE,135,5.0,6.0,100,0.00,,,0.00,TxWx,2013-06-29 12:57:00,
2013-06-29 09:02:00,70.0,70.0,29.54,East,90,4.0,5.0,100,0.00,,,0.00,TxWx,2013-06-29 13:02:00,
2013-06-29 09:07:00,71.0,71.0,29.54,SE,135,6.0,6.0,100,0.00,,,0.00,TxWx,2013-06-29 13:07:00,
2013-06-29 09:12:00,71.0,71.0,29.54,ESE,112,4.0,6.0,100,0.00,,,0.00,TxWx,2013-06-29 13:12:00,
2013-06-29 09:17:00,71.0,71.0,29.54,ESE,112,7.0,8.0,100,0.00,,,0.00,TxWx,2013-06-29 13:17:00,
2013-06-29 09:22:00,71.0,71.0,29.54,SE,135,4.0,6.0,100,0.60,,,0.01,TxWx,2013-06-29 13:22:00,
2013-06-29 09:27:00,72.0,72.0,29.54,ESE,112,4.0,5.0,100,0.60,,,0.01,TxWx,2013-06-29 13:27:00,
2013-06-29 09:32:00,72.0,72.0,29.54,ESE,112,5.0,6.0,100,0.00,,,0.01,TxWx,2013-06-29 13:32:00,
2013-06-29 09:38:00,71.0,71.0,29.54,ESE,112,5.0,7.0,99,0.00,,,0.01,TxWx,2013-06-29 13:38:00,
2013-06-29 09:43:00,72.0,72.0,29.54,ESE,112,6.0,6.0,99,0.00,,,0.01,TxWx,2013-06-29 13:43:00,
2013-06-29 09:48:00,72.0,71.0,29.54,East,90,3.0,5.0,98,0.00,,,0.01,TxWx,2013-06-29 13:48:00,
2013-06-29 09:53:00,72.0,71.0,29.54,NE,45,5.0,6.0,98,0.00,,,0.01,TxWx,2013-06-29 13:53:00,
2013-06-29 09:58:00,72.0,71.0,29.54,SSE,157,2.0,3.0,97,0.00,,,0.01,TxWx,2013-06-29 13:58:00,
2013-06-29 10:03:00,72.0,71.0,29.54,SSE,157,5.0,7.0,96,0.00,,,0.01,TxWx,2013-06-29 14:03:00,
2013-06-29 10:08:00,72.0,71.0,29.54,ESE,112,4.0,5.0,96,0.00,,,0.01,TxWx,2013-06-29 14:08:00,
2013-06-29 10:13:00,72.0,70.0,29.54,SE,135,5.0,5.0,95,0.00,,,0.01,TxWx,2013-06-29 14:13:00,
2013-06-29 10:18:00,72.0,70.0,29.54,SE,135,5.0,5.0,95,0.00,,,0.01,TxWx,2013-06-29 14:18:00,
2013-06-29 10:23:00,72.0,70.0,29.54,ESE,112,5.0,6.0,95,0.00,,,0.01,TxWx,2013-06-29 14:23:00,
2013-06-29 10:29:00,73.0,71.0,29.54,East,90,8.0,8.0,95,0.00,,,0.01,TxWx,2013-06-29 14:29:00,
2013-06-29 10:34:00,73.0,71.0,29.54,East,90,4.0,5.0,94,0.00,,,0.01,TxWx,2013-06-29 14:34:00,
2013-06-29 10:39:00,73.0,71.0,29.54,ESE,112,3.0,5.0,94,0.00,,,0.01,TxWx,2013-06-29 14:39:00,
2013-06-29 10:44:00,74.0,72.0,29.54,ESE,112,5.0,5.0,94,0.00,,,0.01,TxWx,2013-06-29 14:44:00,
2013-06-29 10:49:00,74.0,72.0,29.54,ESE,112,4.0,6.0,92,0.00,,,0.01,TxWx,2013-06-29 14:49:00,
2013-06-29 10:55:00,74.0,72.0,29.54,SE,135,3.0,5.0,92,0.00,,,0.01,TxWx,2013-06-29 14:55:00,
2013-06-29 11:00:00,74.0,71.0,29.54,ESE,112,4.0,7.0,90,0.00,,,0.01,TxWx,2013-06-29 15:00:00,
2013-06-29 11:05:00,74.0,71.0,29.54,East,90,5.0,9.0,90,0.00,,,0.01,TxWx,2013-06-29 15:05:00,
2013-06-29 11:10:00,74.0,71.0,29.54,ESE,112,5.0,5.0,90,0.00,,,0.01,TxWx,2013-06-29 15:10:00,
2013-06-29 11:15:00,74.0,71.0,29.54,ESE,112,6.0,6.0,90,0.00,,,0.01,TxWx,2013-06-29 15:15:00,
2013-06-29 11:21:00,74.0,71.0,29.54,NNE,22,3.0,8.0,90,0.00,,,0.01,TxWx,2013-06-29 15:21:00,
2013-06-29 11:26:00,74.0,71.0,29.54,SSE,157,6.0,8.0,89,0.00,,,0.01,TxWx,2013-06-29 15:26:00,
2013-06-29 11:32:00,74.0,70.0,29.54,ESE,112,6.0,6.0,88,0.00,,,0.01,TxWx,2013-06-29 15:32:00,
2013-06-29 11:37:00,74.0,70.0,29.54,SE,135,6.0,6.0,88,0.00,,,0.01,TxWx,2013-06-29 15:37:00,
2013-06-29 11:42:00,74.0,70.0,29.54,South,180,5.0,6.0,89,0.00,,,0.01,TxWx,2013-06-29 15:42:00,
2013-06-29 11:47:00,74.0,70.0,29.54,South,180,4.0,5.0,89,0.00,,,0.01,TxWx,2013-06-29 15:47:00,
2013-06-29 11:52:00,74.0,70.0,29.54,SE,135,6.0,6.0,88,0.00,,,0.01,TxWx,2013-06-29 15:52:00,
2013-06-29 11:57:00,75.0,71.0,29.54,SSE,157,3.0,3.0,88,0.00,,,0.01,TxWx,2013-06-29 15:57:00,
2013-06-29 12:02:00,75.0,71.0,29.54,ESE,112,6.0,7.0,88,0.00,,,0.01,TxWx,2013-06-29 16:02:00,
2013-06-29 12:08:00,75.0,71.0,29.54,SSE,157,10.0,11.0,87,0.00,,,0.01,TxWx,2013-06-29 16:08:00,
2013-06-29 12:13:00,75.0,71.0,29.54,SSE,157,5.0,8.0,86,0.00,,,0.01,TxWx,2013-06-29 16:13:00,
2013-06-29 12:18:00,75.0,71.0,29.54,South,180,11.0,11.0,87,0.00,,,0.01,TxWx,2013-06-29 16:18:00,
2013-06-29 12:23:00,76.0,71.0,29.53,SSE,157,5.0,5.0,86,0.00,,,0.01,TxWx,2013-06-29 16:23:00,
2013-06-29 12:28:00,77.0,72.0,29.53,SSW,202,6.0,9.0,85,0.00,,,0.01,TxWx,2013-06-29 16:28:00,
2013-06-29 12:34:00,77.0,71.0,29.53,SSW,202,8.0,8.0,83,0.00,,,0.01,TxWx,2013-06-29 16:34:00,
2013-06-29 12:39:00,78.0,72.0,29.53,East,90,3.0,4.0,81,0.00,,,0.01,TxWx,2013-06-29 16:39:00,
2013-06-29 12:44:00,78.0,71.0,29.53,ESE,112,6.0,6.0,81,0.00,,,0.01,TxWx,2013-06-29 16:44:00,
2013-06-29 12:49:00,78.0,71.0,29.53,SSE,157,7.0,10.0,79,0.00,,,0.01,TxWx,2013-06-29 16:49:00,
2013-06-29 12:54:00,78.0,71.0,29.53,NE,45,3.0,10.0,79,0.00,,,0.01,TxWx,2013-06-29 16:54:00,
2013-06-29 13:00:00,79.0,71.0,29.52,West,270,5.0,5.0,78,0.00,,,0.01,TxWx,2013-06-29 17:00:00,
2013-06-29 13:05:00,79.0,71.0,29.52,East,90,2.0,4.0,76,0.00,,,0.01,TxWx,2013-06-29 17:05:00,
2013-06-29 13:10:00,80.0,71.0,29.52,ESE,112,3.0,3.0,75,0.00,,,0.01,TxWx,2013-06-29 17:10:00,
2013-06-29 13:15:00,80.0,71.0,29.52,SE,135,10.0,10.0,75,0.00,,,0.01,TxWx,2013-06-29 17:15:00,
2013-06-29 13:20:00,80.0,71.0,29.52,SSE,157,8.0,10.0,73,0.00,,,0.01,TxWx,2013-06-29 17:20:00,
2013-06-29 13:25:00,81.0,71.0,29.52,South,180,5.0,7.0,73,0.00,,,0.01,TxWx,2013-06-29 17:25:00,
2013-06-29 13:31:00,80.0,70.0,29.52,SSE,157,5.0,6.0,72,0.00,,,0.01,TxWx,2013-06-29 17:31:00,
2013-06-29 13:36:00,80.0,70.0,29.52,SE,135,6.0,8.0,71,0.00,,,0.01,TxWx,2013-06-29 17:36:00,
2013-06-29 13:41:00,81.0,70.0,29.52,SSW,202,13.0,14.0,71,0.00,,,0.01,TxWx,2013-06-29 17:41:00,
2013-06-29 13:46:00,81.0,69.0,29.52,SSE,157,8.0,11.0,67,0.00,,,0.01,TxWx,2013-06-29 17:46:00,
2013-06-29 13:51:00,81.0,69.0,29.52,SE,135,7.0,11.0,67,0.00,,,0.01,TxWx,2013-06-29 17:51:00,
2013-06-29 13:57:00,82.0,69.0,29.52,SE,135,8.0,10.0,65,0.00,,,0.01,TxWx,2013-06-29 17:57:00,
2013-06-29 14:02:00,82.0,69.0,29.52,SSE,157,11.0,13.0,65,0.00,,,0.01,TxWx,2013-06-29 18:02:00,
2013-06-29 14:07:00,82.0,69.0,29.51,SSW,202,5.0,14.0,65,0.00,,,0.01,TxWx,2013-06-29 18:07:00,
2013-06-29 14:12:00,83.0,70.0,29.51,SW,225,8.0,8.0,65,0.00,,,0.01,TxWx,2013-06-29 18:12:00,
2013-06-29 14:18:00,83.0,69.0,29.52,South,180,9.0,14.0,63,0.00,,,0.01,TxWx,2013-06-29 18:18:00,
2013-06-29 14:23:00,83.0,69.0,29.51,South,180,13.0,14.0,64,0.00,,,0.01,TxWx,2013-06-29 18:23:00,
2013-06-29 14:28:00,83.0,69.0,29.51,SSW,202,7.0,10.0,63,0.00,,,0.01,TxWx,2013-06-29 18:28:00,
2013-06-29 14:34:00,82.0,68.0,29.51,South,180,9.0,10.0,64,0.00,,,0.01,TxWx,2013-06-29 18:34:00,
2013-06-29 14:39:00,82.0,69.0,29.51,SSE,157,3.0,8.0,64,0.00,,,0.01,TxWx,2013-06-29 18:39:00,
2013-06-29 14:44:00,82.0,69.0,29.51,SE,135,6.0,8.0,65,0.00,,,0.01,TxWx,2013-06-29 18:44:00,
2013-06-29 14:49:00,82.0,69.0,29.51,South,180,13.0,19.0,65,0.00,,,0.01,TxWx,2013-06-29 18:49:00,
2013-06-29 14:55:00,82.0,69.0,29.51,ENE,67,6.0,11.0,66,0.00,,,0.01,TxWx,2013-06-29 18:55:00,
2013-06-29 15:00:00,81.0,69.0,29.51,SSE,157,6.0,10.0,68,0.00,,,0.01,TxWx,2013-06-29 19:00:00,
2013-06-29 15:01:00,74.0,69.0,29.67,WSW,247,0.0,0.0,84,0.00,,,0.00,TxWx,2013-06-29 19:01:00,
2013-06-29 15:02:00,74.0,69.0,29.67,SSW,202,0.0,0.0,84,0.00,,,0.00,TxWx,2013-06-29 19:02:00,
2013-06-29 15:03:00,74.0,69.0,29.67,ESE,112,0.0,0.0,84,0.00,,,0.00,TxWx,2013-06-29 19:03:00,
2013-06-29 15:04:00,74.0,69.0,29.67,SSE,157,0.0,0.0,84,0.00,,,0.00,TxWx,2013-06-29 19:04:00,
2013-06-29 15:05:00,81.0,69.0,29.51,SSE,157,6.0,9.0,68,0.00,,,0.01,TxWx,2013-06-29 19:05:00,
2013-06-29 15:06:00,74.0,69.0,29.67,NE,45,0.0,0.0,84,0.00,,,0.00,TxWx,2013-06-29 19:06:00,
2013-06-29 15:07:00,74.0,69.0,29.67,NE,45,0.0,0.0,84,0.00,,,0.00,TxWx,2013-06-29 19:07:00,
2013-06-29 15:08:00,74.0,69.0,29.67,East,90,0.0,0.0,84,0.00,,,0.01,TxWx,2013-06-29 19:08:00,
2013-06-29 15:09:00,74.0,69.0,29.67,ENE,67,0.0,0.0,84,0.00,,,0.01,TxWx,2013-06-29 19:09:00,
2013-06-29 15:10:00,81.0,69.0,29.51,SSE,157,8.0,14.0,67,0.00,,,0.01,TxWx,2013-06-29 19:10:00,
2013-06-29 15:11:00,74.0,69.0,29.67,ENE,67,0.0,0.0,84,0.60,,,0.01,TxWx,2013-06-29 19:11:00,
2013-06-29 15:12:00,74.0,69.0,29.67,ESE,112,0.0,0.0,84,0.60,,,0.01,TxWx,2013-06-29 19:12:00,
2013-06-29 15:13:00,74.0,69.0,29.67,ESE,112,0.0,0.0,84,0.60,,,0.01,TxWx,2013-06-29 19:13:00,
2013-06-29 15:14:00,74.0,69.0,29.67,ESE,112,0.0,0.0,85,0.60,,,0.01,TxWx,2013-06-29 19:14:00,
2013-06-29 15:15:00,81.0,69.0,29.51,South,180,5.0,6.0,67,0.00,,,0.01,TxWx,2013-06-29 19:15:00,
2013-06-29 15:16:00,74.0,69.0,29.67,ESE,112,0.0,0.0,85,0.60,,,0.01,TxWx,2013-06-29 19:16:00,
2013-06-29 15:17:00,74.0,69.0,29.67,SSE,157,0.0,0.0,85,0.60,,,0.01,TxWx,2013-06-29 19:17:00,
2013-06-29 15:18:00,74.0,69.0,29.67,SSW,202,0.0,0.0,85,0.60,,,0.01,TxWx,2013-06-29 19:18:00,
2013-06-29 15:19:00,74.0,69.0,29.67,SW,225,0.0,0.0,85,0.60,,,0.01,TxWx,2013-06-29 19:19:00,
2013-06-29 15:20:00,74.0,69.0,29.67,SE,135,0.0,0.0,85,0.00,,,0.01,TxWx,2013-06-29 19:20:00,
2013-06-29 15:21:00,82.0,68.0,29.51,South,180,13.0,16.0,64,0.00,,,0.01,TxWx,2013-06-29 19:21:00,
2013-06-29 15:22:00,74.0,69.0,29.67,ESE,112,0.0,0.0,86,0.00,,,0.01,TxWx,2013-06-29 19:22:00,
2013-06-29 15:23:00,74.0,70.0,29.67,ESE,112,0.0,0.0,86,0.00,,,0.01,TxWx,2013-06-29 19:23:00,
2013-06-29 15:24:00,74.0,70.0,29.67,SE,135,0.0,0.0,86,0.00,,,0.01,TxWx,2013-06-29 19:24:00,
2013-06-29 15:25:00,74.0,70.0,29.67,ENE,67,0.0,0.0,87,0.00,,,0.01,TxWx,2013-06-29 19:25:00,
2013-06-29 15:26:00,83.0,69.0,29.52,ESE,112,5.0,10.0,62,0.00,,,0.01,TxWx,2013-06-29 19:26:00,
2013-06-29 15:27:00,74.0,70.0,29.67,ENE,67,0.0,0.0,87,0.00,,,0.01,TxWx,2013-06-29 19:27:00,
2013-06-29 15:28:00,74.0,70.0,29.67,ENE,67,0.0,0.0,87,0.00,,,0.01,TxWx,2013-06-29 19:28:00,
2013-06-29 15:29:00,74.0,70.0,29.67,ESE,112,0.0,0.0,88,0.00,,,0.01,TxWx,2013-06-29 19:29:00,
2013-06-29 15:30:00,73.0,69.0,29.67,SSE,157,0.0,0.0,88,0.00,,,0.01,TxWx,2013-06-29 19:30:00,
2013-06-29 15:31:00,83.0,68.0,29.52,South,180,9.0,11.0,62,0.00,,,0.01,TxWx,2013-06-29 19:31:00,
2013-06-29 15:32:00,73.0,69.0,29.67,ENE,67,0.0,0.0,88,0.00,,,0.01,TxWx,2013-06-29 19:32:00,
2013-06-29 15:33:00,73.0,69.0,29.67,ENE,67,0.0,0.0,89,0.00,,,0.01,TxWx,2013-06-29 19:33:00,
2013-06-29 15:34:00,73.0,69.0,29.67,East,90,0.0,0.0,89,0.00,,,0.01,TxWx,2013-06-29 19:34:00,
2013-06-29 15:35:00,73.0,69.0,29.67,ENE,67,0.0,0.0,89,0.00,,,0.01,TxWx,2013-06-29 19:35:00,
2013-06-29 15:36:00,84.0,69.0,29.52,SSW,202,11.0,11.0,61,0.00,,,0.01,TxWx,2013-06-29 19:36:00,
2013-06-29 15:37:00,73.0,70.0,29.67,ESE,112,0.0,0.0,89,0.00,,,0.01,TxWx,2013-06-29 19:37:00,
2013-06-29 15:38:00,73.0,70.0,29.67,NNW,337,0.0,0.0,89,0.00,,,0.01,TxWx,2013-06-29 19:38:00,
2013-06-29 15:39:00,73.0,70.0,29.67,West,270,0.0,0.0,90,0.00,,,0.01,TxWx,2013-06-29 19:39:00,
2013-06-29 15:40:00,73.0,70.0,29.67,SE,135,0.0,0.0,90,0.00,,,0.01,TxWx,2013-06-29 19:40:00,
2013-06-29 15:41:00,84.0,69.0,29.52,SSE,157,12.0,13.0,61,0.00,,,0.01,TxWx,2013-06-29 19:41:00,
2013-06-29 15:42:00,73.0,70.0,29.68,South,180,0.0,0.0,90,0.00,,,0.01,TxWx,2013-06-29 19:42:00,
2013-06-29 15:43:00,73.0,70.0,29.68,SSE,157,0.0,0.0,90,0.00,,,0.01,TxWx,2013-06-29 19:43:00,
2013-06-29 15:44:00,73.0,70.0,29.67,NW,315,0.0,0.0,91,0.00,,,0.01,TxWx,2013-06-29 19:44:00,
2013-06-29 15:45:00,73.0,70.0,29.68,NNW,337,0.0,0.0,91,0.00,,,0.01,TxWx,2013-06-29 19:45:00,
2013-06-29 15:46:00,84.0,69.0,29.52,ESE,112,5.0,10.0,60,0.00,,,0.01,TxWx,2013-06-29 19:46:00,
2013-06-29 15:48:00,72.0,69.0,29.68,WSW,247,3.0,4.0,91,0.00,,,0.01,TxWx,2013-06-29 19:48:00,
2013-06-29 15:49:00,72.0,69.0,29.68,West,270,3.0,4.0,91,0.00,,,0.01,TxWx,2013-06-29 19:49:00,
2013-06-29 15:50:00,72.0,69.0,29.68,West,270,1.0,2.0,92,0.00,,,0.01,TxWx,2013-06-29 19:50:00,
2013-06-29 15:51:00,72.0,69.0,29.68,WSW,247,0.0,0.0,92,0.00,,,0.01,TxWx,2013-06-29 19:51:00,
2013-06-29 15:52:00,84.0,68.0,29.52,SSE,157,8.0,15.0,59,0.00,,,0.01,TxWx,2013-06-29 19:52:00,
2013-06-29 15:56:00,72.0,70.0,29.68,SSE,157,0.0,0.0,93,0.00,,,0.01,TxWx,2013-06-29 19:56:00,
2013-06-29 15:57:00,84.0,68.0,29.52,South,180,12.0,17.0,59,0.00,,,0.01,TxWx,2013-06-29 19:57:00,
2013-06-29 15:58:00,72.0,70.0,29.68,West,270,0.0,0.0,93,0.00,,,0.01,TxWx,2013-06-29 19:58:00,
2013-06-29 16:02:00,84.0,68.0,29.52,South,180,8.0,10.0,58,0.00,,,0.01,TxWx,2013-06-29 20:02:00,
2013-06-29 16:05:00,72.0,70.0,29.68,NW,315,0.0,0.0,94,0.00,,,0.01,TxWx,2013-06-29 20:05:00,
2013-06-29 16:07:00,84.0,68.0,29.52,ESE,112,4.0,8.0,60,0.00,,,0.01,TxWx,2013-06-29 20:07:00,
2013-06-29 16:13:00,84.0,68.0,29.52,South,180,14.0,14.0,60,0.00,,,0.01,TxWx,2013-06-29 20:13:00,
2013-06-29 16:18:00,84.0,68.0,29.52,SSE,157,11.0,14.0,59,0.00,,,0.01,TxWx,2013-06-29 20:18:00,
2013-06-29 16:23:00,84.0,68.0,29.53,ESE,112,14.0,14.0,59,0.00,,,0.01,TxWx,2013-06-29 20:23:00,
2013-06-29 16:29:00,84.0,68.0,29.53,SSE,157,14.0,14.0,60,0.00,,,0.01,TxWx,2013-06-29 20:29:00,
2013-06-29 16:34:00,84.0,69.0,29.53,SSE,157,10.0,12.0,60,0.00,,,0.01,TxWx,2013-06-29 20:34:00,
2013-06-29 16:39:00,84.0,68.0,29.53,South,180,7.0,10.0,60,0.00,,,0.01,TxWx,2013-06-29 20:39:00,
2013-06-29 16:44:00,84.0,68.0,29.54,SSE,157,8.0,8.0,59,0.00,,,0.01,TxWx,2013-06-29 20:44:00,
2013-06-29 16:50:00,84.0,68.0,29.54,SE,135,7.0,10.0,60,0.00,,,0.01,TxWx,2013-06-29 20:50:00,
2013-06-29 16:55:00,84.0,68.0,29.54,South,180,6.0,9.0,60,0.00,,,0.01,TxWx,2013-06-29 20:55:00,
2013-06-29 17:00:00,84.0,68.0,29.54,SSE,157,8.0,8.0,60,0.00,,,0.01,TxWx,2013-06-29 21:00:00,
2013-06-29 17:05:00,84.0,68.0,29.54,South,180,5.0,9.0,60,0.00,,,0.01,TxWx,2013-06-29 21:05:00,
2013-06-29 17:11:00,83.0,68.0,29.54,SSE,157,8.0,9.0,60,0.00,,,0.01,TxWx,2013-06-29 21:11:00,
2013-06-29 17:16:00,83.0,68.0,29.54,South,180,7.0,8.0,62,0.00,,,0.01,TxWx,2013-06-29 21:16:00,
2013-06-29 17:21:00,83.0,69.0,29.55,South,180,9.0,11.0,62,0.00,,,0.01,TxWx,2013-06-29 21:21:00,
2013-06-29 17:26:00,83.0,68.0,29.55,ESE,112,6.0,8.0,62,0.00,,,0.01,TxWx,2013-06-29 21:26:00,
2013-06-29 17:31:00,83.0,68.0,29.55,South,180,13.0,16.0,61,0.00,,,0.01,TxWx,2013-06-29 21:31:00,
2013-06-29 17:36:00,83.0,68.0,29.55,SSE,157,10.0,10.0,61,0.00,,,0.01,TxWx,2013-06-29 21:36:00,
2013-06-29 17:42:00,84.0,69.0,29.55,SSW,202,5.0,6.0,61,0.00,,,0.01,TxWx,2013-06-29 21:42:00,
2013-06-29 17:47:00,83.0,68.0,29.55,SE,135,4.0,8.0,61,0.00,,,0.01,TxWx,2013-06-29 21:47:00,
2013-06-29 17:52:00,83.0,68.0,29.54,South,180,9.0,10.0,61,0.00,,,0.01,TxWx,2013-06-29 21:52:00,
2013-06-29 17:57:00,83.0,68.0,29.55,South,180,6.0,6.0,61,0.00,,,0.01,TxWx,2013-06-29 21:57:00,
2013-06-29 18:02:00,83.0,68.0,29.55,South,180,11.0,12.0,61,0.00,,,0.01,TxWx,2013-06-29 22:02:00,
2013-06-29 18:07:00,83.0,68.0,29.55,SE,135,5.0,6.0,62,0.00,,,0.01,TxWx,2013-06-29 22:07:00,
2013-06-29 18:12:00,83.0,69.0,29.55,South,180,5.0,11.0,62,0.00,,,0.01,TxWx,2013-06-29 22:12:00,
2013-06-29 18:17:00,83.0,68.0,29.55,SE,135,3.0,8.0,62,0.00,,,0.01,TxWx,2013-06-29 22:17:00,
2013-06-29 18:22:00,83.0,69.0,29.55,South,180,9.0,10.0,62,0.00,,,0.01,TxWx,2013-06-29 22:22:00,
2013-06-29 18:28:00,82.0,68.0,29.55,SSW,202,8.0,8.0,62,0.00,,,0.01,TxWx,2013-06-29 22:28:00,
2013-06-29 18:33:00,82.0,68.0,29.55,SSE,157,7.0,7.0,62,0.00,,,0.01,TxWx,2013-06-29 22:33:00,
2013-06-29 18:38:00,82.0,68.0,29.56,SSE,157,7.0,10.0,62,0.00,,,0.01,TxWx,2013-06-29 22:38:00,
2013-06-29 18:44:00,82.0,68.0,29.56,SSE,157,2.0,2.0,63,0.00,,,0.01,TxWx,2013-06-29 22:44:00,
2013-06-29 18:49:00,82.0,68.0,29.56,SSE,157,5.0,5.0,63,0.00,,,0.01,TxWx,2013-06-29 22:49:00,
2013-06-29 18:54:00,82.0,68.0,29.56,SSE,157,6.0,6.0,63,0.00,,,0.01,TxWx,2013-06-29 22:54:00,
2013-06-29 19:00:00,82.0,68.0,29.57,South,180,6.0,6.0,63,0.00,,,0.01,TxWx,2013-06-29 23:00:00,
2013-06-29 19:05:00,82.0,68.0,29.57,ESE,112,2.0,6.0,63,0.00,,,0.01,TxWx,2013-06-29 23:05:00,
2013-06-29 19:10:00,82.0,68.0,29.57,South,180,10.0,11.0,63,0.00,,,0.01,TxWx,2013-06-29 23:10:00,
2013-06-29 19:16:00,82.0,68.0,29.57,South,180,8.0,8.0,63,0.00,,,0.01,TxWx,2013-06-29 23:16:00,
2013-06-29 19:21:00,82.0,68.0,29.57,South,180,8.0,10.0,63,0.00,,,0.01,TxWx,2013-06-29 23:21:00,
2013-06-29 19:26:00,82.0,68.0,29.57,South,180,3.0,4.0,64,0.00,,,0.01,TxWx,2013-06-29 23:26:00,
2013-06-29 19:31:00,82.0,68.0,29.58,South,180,3.0,5.0,64,0.00,,,0.01,TxWx,2013-06-29 23:31:00,
2013-06-29 19:37:00,82.0,68.0,29.58,SSE,157,4.0,5.0,64,0.00,,,0.01,TxWx,2013-06-29 23:37:00,
2013-06-29 19:42:00,82.0,68.0,29.58,SSE,157,5.0,5.0,63,0.00,,,0.01,TxWx,2013-06-29 23:42:00,
2013-06-29 19:47:00,82.0,68.0,29.58,South,180,2.0,5.0,64,0.00,,,0.01,TxWx,2013-06-29 23:47:00,
2013-06-29 19:53:00,82.0,68.0,29.58,SW,225,5.0,5.0,64,0.00,,,0.01,TxWx,2013-06-29 23:53:00,
2013-06-29 19:58:00,81.0,68.0,29.59,South,180,6.0,9.0,64,0.00,,,0.01,TxWx,2013-06-29 23:58:00,
2013-06-29 20:03:00,81.0,68.0,29.59,SSE,157,4.0,4.0,64,0.00,,,0.01,TxWx,2013-06-30 00:03:00,
2013-06-29 20:09:00,81.0,68.0,29.59,SSE,157,3.0,4.0,65,0.00,,,0.01,TxWx,2013-06-30 00:09:00,
2013-06-29 20:14:00,81.0,68.0,29.59,SSW,202,3.0,5.0,65,0.00,,,0.01,TxWx,2013-06-30 00:14:00,
2013-06-29 20:19:00,81.0,68.0,29.59,South,180,4.0,4.0,65,0.00,,,0.01,TxWx,2013-06-30 00:19:00,
2013-06-29 20:24:00,81.0,68.0,29.60,SSE,157,1.0,2.0,65,0.00,,,0.01,TxWx,2013-06-30 00:24:00,
2013-06-29 20:29:00,81.0,68.0,29.60,South,180,2.0,3.0,66,0.00,,,0.01,TxWx,2013-06-30 00:29:00,
2013-06-29 20:35:00,81.0,69.0,29.60,South,180,1.0,2.0,66,0.00,,,0.01,TxWx,2013-06-30 00:35:00,
2013-06-29 20:40:00,80.0,68.0,29.61,SSE,157,1.0,2.0,67,0.00,,,0.01,TxWx,2013-06-30 00:40:00,
2013-06-29 20:45:00,80.0,68.0,29.61,SE,135,0.0,0.0,67,0.00,,,0.01,TxWx,2013-06-30 00:45:00,
2013-06-29 20:51:00,80.0,68.0,29.61,NW,315,0.0,0.0,68,0.00,,,0.01,TxWx,2013-06-30 00:51:00,
2013-06-29 20:56:00,80.0,69.0,29.61,NE,45,0.0,0.0,69,0.00,,,0.01,TxWx,2013-06-30 00:56:00,
2013-06-29 21:01:00,80.0,70.0,29.62,NNE,22,0.0,1.0,71,0.00,,,0.01,TxWx,2013-06-30 01:01:00,
2013-06-29 21:06:00,79.0,69.0,29.62,WNW,292,3.0,4.0,71,0.00,,,0.01,TxWx,2013-06-30 01:06:00,
2013-06-29 21:11:00,79.0,69.0,29.62,East,90,1.0,1.0,72,0.00,,,0.01,TxWx,2013-06-30 01:11:00,
2013-06-29 21:17:00,79.0,70.0,29.62,WNW,292,2.0,3.0,73,0.00,,,0.01,TxWx,2013-06-30 01:17:00,
2013-06-29 21:22:00,79.0,70.0,29.62,North,0,0.0,1.0,74,0.00,,,0.01,TxWx,2013-06-30 01:22:00,
2013-06-29 21:27:00,79.0,70.0,29.63,NNE,22,2.0,4.0,75,0.00,,,0.01,TxWx,2013-06-30 01:27:00,
2013-06-29 21:32:00,78.0,69.0,29.63,WNW,292,0.0,1.0,75,0.00,,,0.01,TxWx,2013-06-30 01:32:00,
2013-06-29 21:37:00,78.0,69.0,29.64,NNE,22,0.0,0.0,75,0.00,,,0.01,TxWx,2013-06-30 01:37:00,
2013-06-29 21:42:00,78.0,69.0,29.64,ENE,67,0.0,1.0,75,0.00,,,0.01,TxWx,2013-06-30 01:42:00,
2013-06-29 21:48:00,78.0,70.0,29.64,ENE,67,0.0,0.0,76,0.00,,,0.01,TxWx,2013-06-30 01:48:00,
2013-06-29 21:53:00,77.0,69.0,29.64,East,90,0.0,0.0,77,0.00,,,0.01,TxWx,2013-06-30 01:53:00,
2013-06-29 21:58:00,77.0,70.0,29.64,South,180,0.0,0.0,78,0.00,,,0.01,TxWx,2013-06-30 01:58:00,
2013-06-29 22:03:00,77.0,70.0,29.65,NNE,22,0.0,0.0,79,0.00,,,0.01,TxWx,2013-06-30 02:03:00,
2013-06-29 22:09:00,77.0,70.0,29.64,ESE,112,0.0,1.0,79,0.00,,,0.01,TxWx,2013-06-30 02:09:00,
2013-06-29 22:14:00,76.0,69.0,29.65,ENE,67,0.0,0.0,80,0.00,,,0.01,TxWx,2013-06-30 02:14:00,
2013-06-29 22:19:00,76.0,69.0,29.65,NW,315,0.0,1.0,80,0.00,,,0.01,TxWx,2013-06-30 02:19:00,
2013-06-29 22:24:00,76.0,70.0,29.65,South,180,0.0,1.0,81,0.00,,,0.01,TxWx,2013-06-30 02:24:00,
2013-06-29 22:29:00,76.0,70.0,29.65,East,90,0.0,0.0,81,0.00,,,0.01,TxWx,2013-06-30 02:29:00,
2013-06-29 22:35:00,75.0,69.0,29.65,ENE,67,0.0,0.0,82,0.00,,,0.01,TxWx,2013-06-30 02:35:00,
2013-06-29 22:40:00,75.0,69.0,29.65,NW,315,0.0,1.0,83,0.00,,,0.01,TxWx,2013-06-30 02:40:00,
2013-06-29 22:45:00,75.0,69.0,29.65,East,90,0.0,0.0,83,0.00,,,0.01,TxWx,2013-06-30 02:45:00,
2013-06-29 22:50:00,75.0,69.0,29.65,East,90,0.0,0.0,83,0.00,,,0.01,TxWx,2013-06-30 02:50:00,
2013-06-29 22:56:00,75.0,69.0,29.65,NE,45,0.0,0.0,83,0.00,,,0.01,TxWx,2013-06-30 02:56:00,
2013-06-29 23:01:00,75.0,69.0,29.65,ENE,67,0.0,0.0,82,0.00,,,0.01,TxWx,2013-06-30 03:01:00,
2013-06-29 23:06:00,75.0,69.0,29.65,ENE,67,0.0,0.0,82,0.00,,,0.01,TxWx,2013-06-30 03:06:00,
2013-06-29 23:12:00,75.0,69.0,29.66,ENE,67,0.0,0.0,82,0.00,,,0.01,TxWx,2013-06-30 03:12:00,
2013-06-29 23:17:00,75.0,69.0,29.66,East,90,0.0,0.0,82,0.00,,,0.01,TxWx,2013-06-30 03:17:00,
2013-06-29 23:22:00,75.0,69.0,29.67,NE,45,0.0,0.0,83,0.00,,,0.01,TxWx,2013-06-30 03:22:00,
2013-06-29 23:27:00,75.0,70.0,29.66,NE,45,0.0,0.0,84,0.00,,,0.01,TxWx,2013-06-30 03:27:00,
2013-06-29 23:32:00,74.0,69.0,29.67,NNE,22,0.0,0.0,84,0.00,,,0.01,TxWx,2013-06-30 03:32:00,
2013-06-29 23:37:00,75.0,70.0,29.67,NE,45,0.0,0.0,85,0.00,,,0.01,TxWx,2013-06-30 03:37:00,
2013-06-29 23:42:00,75.0,70.0,29.66,East,90,0.0,0.0,84,0.00,,,0.01,TxWx,2013-06-30 03:42:00,
2013-06-29 23:47:00,75.0,70.0,29.66,NW,315,0.0,0.0,84,0.00,,,0.01,TxWx,2013-06-30 03:47:00,
2013-06-29 23:53:00,75.0,69.0,29.67,WSW,247,0.0,0.0,83,0.00,,,0.01,TxWx,2013-06-30 03:53:00,
2013-06-29 23:58:00,74.0,69.0,29.67,NE,45,0.0,0.0,84,0.00,,,0.01,TxWx,2013-06-30 03:58:00,